User: anonymous   Login
Location: Unspecified
(0.0000°N, 0.0000°E)
Time: 06:18:00
(UTC+00:00)
Language:

UNISAT 5 - Orbit

View from above orbital plane
View from above orbital plane
View from above satellite
View from above satellite

Ground track
Ground track

The orbit data is extracted from the following two-line orbital elements,

1 39421U 13066F   18175.72176121  .00000212  00000-0  28868-4 0  9995
2 39421  97.5915 222.9623 0032725  86.4482 274.0477 14.87574204249035
Epoch (UTC): 24 June 2018 17:19:20
Eccentricity: 0.0032725
inclination: 97.5915°
perigee height: 582 km
apogee height: 628 km
right ascension of ascending node: 222.9623°
argument of perigee: 86.4482°
revolutions per day: 14.87574204
mean anomaly at epoch: 274.0477°
orbit number at epoch: 24903

The dashed part of the orbit path shows where the satellite is in the earth's shadow,  

DLR